CW5217 Weather Reports


time (UTC)temp
C
wind
direction
speed
KPH
gust
KPH
rain 1hr
cm
rain 24hr
cm
rain mn
cm
humidity
%
barometer
mb
20260510180033 18 172 3.2 6.4 0.00 0.00 0.00 71 1014.1
20260510175533 18 285 6.4 6.4 0.00 0.00 0.00 71 1014.2
20260510175029 18 230 8.0 9.7 0.00 0.00 0.00 71 1014.2
20260510174528 18 137 3.2 6.4 0.00 0.00 0.00 71 1014.2
20260510174024 18 164 4.8 6.4 0.00 0.00 0.00 70 1014.1
20260510173519 18 206 11.3 14.5 0.00 0.00 0.00 69 1014.0
20260510173016 18 206 4.8 4.8 0.00 0.00 0.00 70 1014.1
20260510172512 19 29 6.4 11.3 0.00 0.00 0.00 69 1014.0
20260510172009 19 233 4.8 9.7 0.00 0.00 0.00 69 1013.8
20260510171506 19 147 3.2 6.4 0.00 0.00 0.00 70 1013.8
20260510171002 19 274 9.7 11.3 0.00 0.00 0.00 71 1013.8
20260510170459 18 263 4.8 4.8 0.00 0.00 0.00 71 1013.8
20260510165954 18 103 1.6 6.4 0.00 0.00 0.00 72 1014.0
20260510165451 19 313 4.8 6.4 0.00 0.00 0.00 70 1013.8
20260510164948 19 111 3.2 4.8 0.00 0.00 0.00 71 1013.9
20260510164445 19 246 6.4 12.9 0.00 0.00 0.00 68 1013.7
20260510163940 20 219 4.8 6.4 0.00 0.00 0.00 69 1013.8
20260510163436 19 352 4.8 9.7 0.00 0.00 0.00 70 1013.7
20260510162931 19 328 4.8 6.4 0.00 0.00 0.00 73 1013.8
20260510162429 18 143 1.6 4.8 0.00 0.00 0.00 73 1013.7
20260510161924 18 200 6.4 6.4 0.00 0.00 0.00 74 1013.7
20260510161420 18 190 3.2 4.8 0.00 0.00 0.00 74 1013.8
20260510160918 18 308 4.8 6.4 0.00 0.00 0.00 76 1013.7
20260510160414 18 284 4.8 6.4 0.00 0.00 0.00 75 1013.8
20260510155908 18 235 1.6 4.8 0.00 0.00 0.00 75 1013.8
20260510155405 18 83 1.6 9.7 0.00 0.00 0.00 77 1013.8
20260510154901 18 102 1.6 3.2 0.00 0.00 0.00 76 1013.8
20260510154357 18 133 4.8 9.7 0.00 0.00 0.00 75 1013.7
20260510153851 18 150 1.6 6.4 0.00 0.00 0.00 75 1013.4
20260510153348 18 99 0.0 3.2 0.00 0.00 0.00 77 1013.8
20260510152844 18 89 0.0 3.2 0.00 0.00 0.00 75 1013.7
20260510152342 17 91 0.0 3.2 0.00 0.00 0.00 79 1013.6
20260510151838 17 161 3.2 4.8 0.00 0.00 0.00 80 1013.6
20260510151336 17 105 0.0 1.6 0.00 0.00 0.00 86 1013.8
20260510150831 17 137 1.6 3.2 0.00 0.00 0.00 86 1013.4
20260510150327 16 110 1.6 3.2 0.00 0.00 0.00 87 1013.6
20260510145824 16 93 0.0 3.2 0.00 0.00 0.00 88 1013.5
20260510145320 16 109 1.6 4.8 0.00 0.00 0.00 89 1013.4
20260510144817 15 89 0.0 3.2 0.00 0.00 0.00 90 1013.7
20260510144313 15 89 0.0 1.6 0.00 0.00 0.00 91 1013.6
20260510143813 15 143 0.0 1.6 0.00 0.00 0.00 91 1013.7
20260510143309 15 116 1.6 1.6 0.00 0.00 0.00 94 1013.7
20260510142800 14 140 1.6 3.2 0.00 0.00 0.00 95 1013.4
20260510142257 14 91 0.0 1.6 0.00 0.00 0.00 95 1013.5
20260510141754 13 133 1.6 3.2 0.00 0.00 0.00 97 1013.4
20260510141252 13 101 0.0 3.2 0.00 0.00 0.00 98 1013.5
20260510140749 13 115 3.2 3.2 0.00 0.00 0.00 99 1013.3
20260510140244 13 114 1.6 3.2 0.00 0.00 0.00 99 1013.4
20260510135743 12 133 1.6 1.6 0.00 0.00 0.00 99 1013.4
20260510135239 12 137 1.6 1.6 0.00 0.00 0.00 99 1013.4
20260510134737 12 97 0.0 3.2 0.00 0.00 0.00 99 1013.2
20260510134234 12 138 3.2 3.2 0.00 0.00 0.00 99 1013.4
20260510133730 12 96 0.0 0.0 0.00 0.00 0.00 99 1013.1
20260510133226 12 97 0.0 0.0 0.00 0.00 0.00 99 1013.1
20260510132722 12 104 0.0 0.0 0.00 0.00 0.00 99 1013.0
20260510132220 12 100 0.0 0.0 0.00 0.00 0.00 99 1013.3
20260510131717 11 112 0.0 0.0 0.00 0.00 0.00 99 1013.3
20260510131215 11 95 1.6 3.2 0.00 0.00 0.00 99 1013.3
20260510130710 12 88 0.0 0.0 0.00 0.00 0.00 99 1013.2
20260510130208 11 102 0.0 0.0 0.00 0.00 0.00 99 1013.3
20260510125704 11 118 0.0 3.2 0.00 0.00 0.00 99 1013.5
20260510125200 11 94 0.0 0.0 0.00 0.00 0.00 99 1013.4
20260510124657 11 101 0.0 0.0 0.00 0.00 0.00 99 1013.4
20260510124155 11 93 0.0 0.0 0.00 0.00 0.00 99 1013.3
20260510123650 11 104 0.0 0.0 0.00 0.00 0.00 99 1013.2
20260510123146 11 102 0.0 0.0 0.00 0.00 0.00 99 1013.1
20260510122643 10 99 0.0 0.0 0.00 0.00 0.00 99 1012.8
20260510122138 10 104 0.0 0.0 0.00 0.00 0.00 99 1012.8
20260510121635 11 103 0.0 0.0 0.00 0.00 0.00 99 1012.9
20260510121132 11 103 0.0 0.0 0.00 0.00 0.00 99 1012.7
20260510120630 11 104 0.0 0.0 0.00 0.00 0.00 99 1012.6
20260510120125 11 101 0.0 0.0 0.00 0.00 0.00 99 1012.5
20260510115622 10 96 0.0 0.0 0.00 0.00 0.00 99 1012.8
20260510115120 10 99 0.0 0.0 0.00 0.00 0.00 99 1012.5
20260510114615 10 99 0.0 0.0 0.00 0.00 0.00 99 1012.5
20260510114112 10 95 0.0 0.0 0.00 0.00 0.00 99 1012.3
20260510113607 10 96 0.0 0.0 0.00 0.00 0.00 99 1012.2
20260510113105 10 95 0.0 0.0 0.00 0.00 0.00 99 1012.3
20260510112601 10 95 0.0 0.0 0.00 0.00 0.00 99 1012.2
20260510112058 10 108 0.0 0.0 0.00 0.00 0.00 99 1012.2
20260510111554 10 92 0.0 0.0 0.00 0.00 0.00 99 1012.1
20260510111050 10 101 0.0 0.0 0.00 0.00 0.00 99 1011.9
20260510110546 10 101 0.0 0.0 0.00 0.00 0.00 99 1012.0
20260510110043 10 101 0.0 0.0 0.00 0.00 0.00 99 1012.0
20260510105538 10 101 0.0 0.0 0.00 0.00 0.00 99 1012.1
20260510105033 10 102 0.0 0.0 0.00 0.00 0.00 99 1012.3
20260510104530 10 101 0.0 0.0 0.00 0.00 0.00 99 1012.0
20260510104026 9 103 0.0 0.0 0.00 0.00 0.00 99 1012.0
20260510103524 9 98 0.0 0.0 0.00 0.00 0.00 99 1012.1
20260510103020 9 98 0.0 0.0 0.00 0.00 0.00 99 1012.1
20260510102516 9 98 0.0 0.0 0.00 0.00 0.00 99 1012.0
20260510102012 8 98 0.0 0.0 0.00 0.00 0.00 99 1011.9
20260510101510 8 98 0.0 0.0 0.00 0.00 0.00 99 1011.7
20260510101008 9 98 0.0 0.0 0.00 0.00 0.00 99 1011.7
20260510100504 9 99 0.0 0.0 0.00 0.00 0.00 99 1011.5
20260510100001 9 100 0.0 0.0 0.00 0.00 0.00 99 1011.3
20260510095456 9 101 0.0 0.0 0.00 0.00 0.00 99 1011.5
20260510094955 9 101 0.0 0.0 0.00 0.00 0.00 99 1011.6
20260510094451 9 105 0.0 0.0 0.00 0.00 0.00 99 1011.7
20260510093947 9 96 0.0 0.0 0.00 0.00 0.00 99 1011.5
20260510093442 9 96 0.0 0.0 0.00 0.00 0.00 99 1011.8
20260510092939 9 96 0.0 0.0 0.00 0.00 0.00 99 1011.6
20260510092437 9 100 0.0 0.0 0.00 0.00 0.00 99 1011.7
20260510091936 9 98 0.0 0.0 0.00 0.00 0.00 99 1011.5
20260510091433 9 98 0.0 0.0 0.00 0.00 0.00 99 1011.6
20260510090930 9 98 0.0 0.0 0.00 0.00 0.00 99 1011.5
20260510090426 9 96 0.0 0.0 0.00 0.00 0.00 99 1011.7
20260510085922 9 98 0.0 0.0 0.00 0.00 0.00 99 1011.7
20260510085418 9 98 0.0 0.0 0.00 0.00 0.00 99 1011.7
20260510084913 9 98 0.0 0.0 0.00 0.00 0.00 99 1011.6
20260510084411 9 95 0.0 0.0 0.00 0.00 0.00 99 1011.8
20260510083907 9 96 0.0 0.0 0.00 0.00 0.00 99 1011.9
20260510083404 9 93 0.0 0.0 0.00 0.00 0.00 99 1012.0
20260510082859 9 94 0.0 0.0 0.00 0.00 0.00 99 1011.9
20260510082357 9 94 0.0 0.0 0.00 0.00 0.00 99 1012.1
20260510081855 9 99 0.0 0.0 0.00 0.00 0.00 99 1011.8
20260510081351 9 95 0.0 0.0 0.00 0.00 0.00 99 1011.8
20260510080849 9 95 0.0 0.0 0.00 0.00 0.00 99 1012.2
20260510080342 8 89 0.0 1.6 0.00 0.00 0.00 99 1012.2
20260510075840 8 87 1.6 1.6 0.00 0.00 0.00 99 1012.0
20260510075337 8 120 1.6 3.2 0.00 0.00 0.00 99 1012.0
20260510074834 8 96 1.6 3.2 0.00 0.00 0.00 99 1012.0
20260510074331 8 96 0.0 4.8 0.00 0.00 0.00 99 1012.0
20260510073827 8 89 0.0 0.0 0.00 0.00 0.00 99 1012.1
20260510073323 8 56 1.6 3.2 0.00 0.00 0.00 99 1011.5
20260510072819 8 354 6.4 9.7 0.00 0.00 0.00 99 1012.0
20260510072316 8 93 0.0 0.0 0.00 0.00 0.00 99 1011.0
20260510071812 8 91 0.0 0.0 0.00 0.00 0.00 99 1011.0
20260510071303 8 93 0.0 0.0 0.00 0.00 0.00 99 1011.0
20260510070802 8 93 0.0 0.0 0.00 0.00 0.00 99 1011.0
20260510070258 8 93 0.0 0.0 0.00 0.00 0.00 99 1011.1
20260510065758 8 93 0.0 0.0 0.00 0.00 0.00 99 1011.1
20260510065255 8 93 0.0 0.0 0.00 0.00 0.00 99 1011.1
20260510064752 8 93 0.0 0.0 0.00 0.00 0.00 99 1011.6
20260510064250 8 93 0.0 0.0 0.00 0.00 0.00 99 1011.1
20260510063745 8 93 0.0 0.0 0.00 0.00 0.00 99 1011.5
20260510063242 8 93 0.0 0.0 0.00 0.00 0.00 99 1011.3
20260510062738 8 93 0.0 0.0 0.00 0.00 0.00 99 1011.3
20260510062234 8 93 0.0 0.0 0.00 0.00 0.00 99 1011.5
20260510061730 8 93 0.0 0.0 0.00 0.00 0.00 99 1011.7
20260510061227 8 93 0.0 0.0 0.00 0.00 0.00 99 1011.8
20260510060723 8 93 0.0 0.0 0.00 0.00 0.00 99 1011.8
20260510060220 8 93 0.0 0.0 0.00 0.00 0.00 99 1011.7
20260510055717 8 93 0.0 0.0 0.00 0.00 0.00 99 1011.5
20260510055216 8 93 0.0 0.0 0.00 0.00 0.00 99 1011.5
20260510054715 8 93 0.0 0.0 0.00 0.00 0.00 99 1011.5
20260510054211 8 93 0.0 0.0 0.00 0.00 0.00 99 1011.3
20260510053706 8 93 0.0 0.0 0.00 0.00 0.00 99 1011.3
20260510053203 8 93 0.0 0.0 0.00 0.00 0.00 99 1011.3
20260510052658 8 93 0.0 0.0 0.00 0.00 0.00 99 1011.3
20260510052154 8 94 0.0 0.0 0.00 0.00 0.00 99 1011.2
20260510051650 8 94 0.0 0.0 0.00 0.00 0.00 99 1011.2
20260510051147 8 94 0.0 0.0 0.00 0.00 0.00 99 1011.2
20260510050644 8 93 0.0 0.0 0.00 0.00 0.00 99 1011.3
20260510050141 8 94 0.0 0.0 0.00 0.00 0.00 99 1011.3
20260510045638 8 93 0.0 0.0 0.00 0.00 0.00 99 1011.1
20260510045135 8 93 0.0 0.0 0.00 0.00 0.00 99 1011.2
20260510044631 8 96 0.0 0.0 0.00 0.00 0.00 99 1011.2
20260510044128 8 96 0.0 0.0 0.00 0.00 0.00 99 1011.3
20260510043624 8 94 0.0 0.0 0.00 0.00 0.00 99 1011.5
20260510043121 8 94 0.0 0.0 0.00 0.00 0.00 99 1011.3
20260510042619 9 94 0.0 0.0 0.00 0.00 0.00 99 1011.5
20260510042114 9 94 0.0 0.0 0.00 0.00 0.00 99 1011.5
20260510041612 9 93 0.0 0.0 0.00 0.00 0.00 99 1011.3
20260510041109 9 96 0.0 0.0 0.00 0.00 0.00 99 1011.2
20260510040606 9 96 0.0 0.0 0.00 0.00 0.00 99 1011.5
20260510035558 10 96 0.0 0.0 0.00 0.84 0.84 99 1011.5
20260510035057 9 96 0.0 0.0 0.00 0.84 0.84 99 1011.3
20260510034556 9 96 0.0 0.0 0.00 0.84 0.84 99 1011.6
20260510034052 9 96 0.0 0.0 0.00 0.84 0.84 99 1011.3
20260510033548 9 94 0.0 0.0 0.00 0.84 0.84 99 1011.2
20260510033046 9 94 0.0 0.0 0.00 0.84 0.84 99 1011.1
20260510032543 9 94 0.0 0.0 0.00 0.84 0.84 99 1011.1
20260510032038 9 94 0.0 0.0 0.00 0.84 0.84 99 1011.0
20260510031533 9 94 0.0 0.0 0.00 0.84 0.84 99 1011.2
20260510031029 9 96 0.0 0.0 0.00 0.84 0.84 99 1011.2
20260510030525 9 96 0.0 0.0 0.00 0.84 0.84 99 1011.2
20260510030023 9 96 0.0 0.0 0.00 0.84 0.84 99 1011.2
20260510025519 9 96 0.0 0.0 0.00 0.84 0.84 99 1011.0
20260510025017 9 96 0.0 0.0 0.00 0.84 0.84 99 1010.9
20260510024514 9 95 0.0 0.0 0.00 0.84 0.84 99 1011.0
20260510024009 9 95 0.0 0.0 0.00 0.84 0.84 99 1011.1
20260510023500 9 95 0.0 0.0 0.00 0.84 0.84 99 1011.0
20260510022958 9 95 0.0 0.0 0.00 0.84 0.84 99 1010.9
20260510022457 10 94 0.0 0.0 0.00 0.84 0.84 99 1010.9
20260510021956 10 94 0.0 0.0 0.00 0.84 0.84 99 1011.0
20260510021454 10 94 0.0 0.0 0.00 0.84 0.84 99 1011.0
20260510020950 10 104 0.0 0.0 0.00 0.84 0.84 99 1010.9
20260510020450 10 104 0.0 0.0 0.00 0.84 0.84 99 1011.2
20260510015946 10 103 0.0 0.0 0.00 0.84 0.84 99 1011.1
20260510015437 10 104 0.0 0.0 0.00 0.84 0.84 99 1011.0
20260510014932 10 103 0.0 0.0 0.00 0.84 0.84 99 1011.1
20260510014430 10 103 0.0 0.0 0.00 0.84 0.84 99 1011.2
20260510013926 10 103 0.0 0.0 0.00 0.84 0.84 99 1011.2
20260510013421 10 103 0.0 0.0 0.00 0.84 0.84 99 1011.2
20260510012917 10 103 0.0 0.0 0.00 0.84 0.84 99 1011.2
20260510012412 10 103 0.0 0.0 0.00 0.84 0.84 99 1011.0
20260510011907 10 103 0.0 0.0 0.00 0.84 0.84 99 1010.9
20260510011402 10 103 0.0 0.0 0.00 0.84 0.84 99 1010.9
20260510010858 10 103 0.0 0.0 0.00 0.84 0.84 99 1011.0
20260510010356 10 104 0.0 0.0 0.00 0.84 0.84 99 1010.8
20260510005852 10 101 0.0 0.0 0.00 0.84 0.84 99 1010.9
20260510005349 10 101 0.0 0.0 0.00 0.84 0.84 99 1010.8
20260510004846 11 101 0.0 0.0 0.00 0.84 0.84 99 1010.7
20260510004344 11 100 0.0 0.0 0.00 0.84 0.84 99 1010.6
20260510003842 11 105 0.0 0.0 0.00 0.84 0.84 99 1010.4
20260510003338 11 97 0.0 0.0 0.00 0.84 0.84 99 1010.4
20260510002837 11 104 0.0 0.0 0.00 0.84 0.84 99 1010.5
20260510002334 11 99 0.0 0.0 0.00 0.84 0.84 99 1010.5
20260510001831 11 99 0.0 0.0 0.00 0.84 0.84 99 1010.4
20260510001329 11 99 0.0 0.0 0.00 0.84 0.84 99 1010.3
20260510000825 11 99 0.0 0.0 0.00 0.84 0.84 99 1010.2
20260510000322 11 99 0.0 0.0 0.00 0.84 0.84 99 1010.1
20260509235819 11 102 0.0 0.0 0.00 0.84 0.84 99 1010.2
20260509235315 11 105 0.0 0.0 0.00 0.84 0.84 99 1010.3
20260509234811 11 104 0.0 0.0 0.00 0.84 0.84 99 1010.4
20260509234308 11 105 0.0 0.0 0.00 0.84 0.84 99 1010.3
20260509233807 11 103 0.0 0.0 0.00 0.84 0.84 98 1010.3
20260509233304 11 101 0.0 0.0 0.00 0.84 0.84 98 1010.3
20260509232759 11 101 0.0 0.0 0.00 0.84 0.84 98 1010.2
20260509232257 11 100 0.0 0.0 0.00 0.84 0.84 98 1010.0
20260509231753 11 108 0.0 0.0 0.00 0.84 0.84 98 1010.1
20260509231250 11 94 0.0 0.0 0.00 0.84 0.84 98 1010.3
20260509230748 11 97 0.0 0.0 0.00 0.84 0.84 97 1010.0
20260509230245 11 97 0.0 0.0 0.00 0.84 0.84 97 1010.0
20260509225740 11 98 0.0 0.0 0.00 0.84 0.84 98 1010.1
20260509225236 11 95 0.0 0.0 0.00 0.84 0.84 98 1009.8
20260509224732 12 96 0.0 0.0 0.00 0.84 0.84 98 1010.2
20260509224230 12 98 0.0 0.0 0.00 0.84 0.84 98 1010.1
20260509223726 12 95 0.0 0.0 0.00 0.84 0.84 98 1010.0
20260509223223 12 99 0.0 0.0 0.00 0.84 0.84 97 1010.2
20260509222720 12 101 0.0 0.0 0.00 0.84 0.84 97 1010.1
20260509222215 12 100 0.0 0.0 0.00 0.84 0.84 97 1010.2
20260509221711 12 98 0.0 0.0 0.00 0.84 0.84 98 1010.1
20260509221207 12 98 0.0 0.0 0.00 0.84 0.84 98 1010.1
20260509220703 12 99 0.0 0.0 0.00 0.84 0.84 97 1010.2
20260509220200 12 99 0.0 0.0 0.00 0.84 0.84 96 1010.0
20260509215656 12 91 0.0 0.0 0.00 0.84 0.84 95 1010.1
20260509215153 12 96 0.0 0.0 0.00 0.84 0.84 97 1010.1
20260509214650 12 100 0.0 0.0 0.00 0.84 0.84 97 1010.1
20260509214146 12 110 0.0 1.6 0.00 0.84 0.84 96 1010.1
20260509213644 12 103 0.0 0.0 0.00 0.84 0.84 95 1010.2
20260509213139 11 99 0.0 0.0 0.00 0.84 0.84 94 1010.2
20260509212637 11 100 1.6 1.6 0.00 0.84 0.84 94 1010.2
20260509212133 11 131 1.6 3.2 0.00 0.84 0.84 94 1010.3
20260509211629 12 118 0.0 1.6 0.00 0.84 0.84 95 1010.6
20260509211126 12 101 0.0 0.0 0.00 0.84 0.84 95 1010.5
20260509210623 12 127 1.6 1.6 0.00 0.84 0.84 94 1010.5
20260509210120 12 95 0.0 0.0 0.00 0.84 0.84 96 1010.4
20260509205614 12 94 1.6 1.6 0.00 0.84 0.84 96 1010.3
20260509205109 12 93 0.0 1.6 0.00 0.84 0.84 97 1010.4
20260509204606 11 100 0.0 0.0 0.00 0.84 0.84 98 1010.5
20260509204102 11 93 0.0 0.0 0.00 0.84 0.84 98 1010.4
20260509203552 11 93 0.0 0.0 0.00 0.84 0.84 98 1010.4
20260509203050 11 100 0.0 0.0 0.13 0.84 0.84 99 1010.4
20260509202544 11 102 0.0 0.0 0.13 0.84 0.84 99 1010.5
20260509202040 11 97 0.0 0.0 0.00 0.81 0.81 98 1010.2
20260509201535 11 97 0.0 0.0 0.00 0.81 0.81 98 1010.4
20260509201033 11 96 0.0 0.0 0.00 0.81 0.81 98 1010.3
20260509200527 11 96 0.0 0.0 0.00 0.81 0.81 98 1010.5
20260509200024 11 97 0.0 0.0 0.00 0.81 0.81 98 1010.5
20260509195519 11 98 0.0 1.6 0.18 0.81 0.81 98 1010.7
20260509195014 11 93 0.0 0.0 0.18 0.81 0.81 98 1010.7
20260509194509 10 85 0.0 1.6 0.00 0.79 0.79 98 1010.7
20260509194007 10 95 0.0 0.0 0.13 0.79 0.79 98 1010.8
20260509193506 10 94 0.0 0.0 0.13 0.79 0.79 98 1011.1
20260509193003 11 95 0.0 0.0 0.18 0.76 0.76 98 1011.6
20260509192459 10 97 0.0 0.0 0.13 0.74 0.74 98 1011.6
20260509191954 10 96 1.6 1.6 0.18 0.71 0.71 98 1011.7
20260509191449 10 105 0.0 0.0 0.30 0.71 0.71 98 1011.8
20260509190945 11 93 0.0 3.2 0.13 0.69 0.69 98 1011.8
20260509190443 11 94 0.0 0.0 0.00 0.66 0.66 98 1011.7
20260509185941 11 102 0.0 1.6 0.18 0.66 0.66 98 1011.6
20260509185432 11 115 1.6 3.2 0.36 0.66 0.66 98 1012.0
20260509184929 11 86 1.6 1.6 0.18 0.64 0.64 98 1011.7
20260509184427 11 101 0.0 0.0 0.13 0.61 0.61 98 1012.0
20260509183923 11 99 0.0 0.0 0.18 0.58 0.58 97 1012.0
20260509183422 11 105 0.0 0.0 0.30 0.58 0.58 97 1011.9
20260509182919 11 121 0.0 0.0 0.30 0.56 0.56 97 1011.8
20260509182416 11 91 0.0 0.0 0.18 0.53 0.53 98 1011.9
20260509181914 11 94 0.0 1.6 0.13 0.51 0.51 97 1011.7
20260509181411 11 114 0.0 0.0 0.13 0.51 0.51 97 1011.7
20260509180908 11 83 0.0 0.0 0.18 0.48 0.48 97 1011.7
20260509180403 11 95 0.0 3.2 0.13 0.46 0.46 98 1011.8